OBJECT BD, 68467

Orbit data source: Space-Track

You're viewing an uncataloged RSO

Recently launched and/or uncataloged RSOs may have evolving metadata. Metadata may include the following, but is not limited to: Owner, Manufacturer, Bus, Motor, and Mission.

OBJECT BD, 68467 is a satellite in SSO that was launched on Mon, 30 Mar 2026 UTC via an FALCON 9 launch vehicle from the Air Force Western Test Range (AFWTR). Unknown objects in Earth's orbit typically refer to objects detected orbiting the Earth but have not yet been identified or cataloged. These objects could be anything from previously untracked satellites, spent rocket stages, debris from satellite collisions, or even natural meteoroids temporarily captured by Earth's gravity.

Loading next visibility...
Identifier
68467, 2026-067BD
Orbit
SSO
Country
Flag of TBDTBD
Related business
None
Manufacturer
Unknown
Mission
Operational Amateur Communications
Bus & Motor
Unknown
Mass
Unknown
Launch date (UTC)
2026-03-30 (6 months ago)
Launch vehicle
FALCON 9
Launch site
Air Force Western Test Range (AFWTR)
Object type
Unknown
Shape & HBR
Box, 0.2 m
Radar Cross Section
0.035 m², Small (<0.1 m²)

Expand to show TLE details & history
Last TLE update: 1 day ago

TLE from 1 day ago
0 OBJECT BD
1 68467U 26067BD  26262.13498654  .00013062  00000-0  57867-3 0  9998
2 68467  97.4500 219.2663 0008391 102.6699 257.5475 15.21728133 26210
Epoch: 2026-09-19T03:14Z
TLE epoch observation values (Epoch: 2026-09-19T03:14:22.837Z)
Latitude
-0.00005°
Longitude
172.62328°
Altitude
504.969 km
Speed
7.611 km/s
True Right ascension
14h 37m 03s
True Declination
0° 00' 00"
Sunlit
Object was in daylight at epoch
Visualization orbit readout
Latitude
Unknown
Longitude
Unknown
Altitude
Unknown
Speed
Unknown
Apparent Right ascension
Unknown
Apparent Declination
Unknown
Sunlit
N/A
Visualization observer readout
Local Sidereal Time
04:11:20
Azimuth
Unknown
Elevation
Unknown
Doppler factor
Unknown
Orbital elements
Apogee altitude
503.363 km
Perigee altitude
491.824 km
Semi-major axis
6,875.73 km
Eccentricity
0.00084
Inclination
97.45°
RAAN
219.2663°
Arg. of periapsis
102.6699°
True anomaly
257.45363°
Mean anomaly
257.5475°
Eccentric anomaly
257.50056°
Mean motion
3.80684 °/min
Orbital period
94.57 mins
BSTAR
0.00057867
Loading maneuver chart data...
Computing Atmospheric mass density...
Loading historical data...
Loading historical data...
Loading historical data...
Loading historical data...
Loading historical data...
Loading historical data...
Loading historical data...

Documentation

Showing up to 5 results
|